This is the latest recevied weather packets stored in our database for station/object K1LVA. If no packets are shown the sender has not sent any weather packets the latest 10 day(s).
| Time | Temp. | Humidity | Pressure | Rain* | Wind** | Luminosity | Snow |
|---|---|---|---|---|---|---|---|
| 1777901507 | 17.22° C | 69% | 1018.5 hPa | 0 mm | - | 524 W/m² | - |
| 1777901204 | 16.67° C | 68% | 1018.6 hPa | 0 mm | - | 333 W/m² | - |
| 1777900902 | 16.11° C | 75% | 1018.8 hPa | 0 mm | - | 206 W/m² | - |
| 1777900599 | 15.56° C | 78% | 1018.7 hPa | 0 mm | - | 150 W/m² | - |
| 1777900296 | 15° C | 80% | 1018.8 hPa | 0 mm | - | 64 W/m² | - |
| 1777899992 | 14.44° C | 86% | 1018.7 hPa | 0 mm | - | 62 W/m² | - |
| 1777899689 | 13.89° C | 90% | 1018.7 hPa | 0 mm | - | 58 W/m² | - |
| 1777899387 | 13.33° C | 91% | 1018.7 hPa | 0 mm | - | 112 W/m² | - |
| 1777899084 | 12.78° C | 94% | 1018.6 hPa | 0 mm | - | 93 W/m² | - |
| 1777898781 | 12.78° C | 96% | 1018.7 hPa | 0 mm | - | 53 W/m² | - |
| 1777898479 | 11.67° C | 99% | 1018.5 hPa | 0 mm | - | 52 W/m² | - |
| 1777898176 | 11.67° C | 99% | 1018.7 hPa | 0 mm | - | 51 W/m² | - |
| 1777897874 | 11.11° C | 99% | 1018.5 hPa | 0 mm | - | 48 W/m² | - |
| 1777897569 | 10.56° C | 99% | 1018.6 hPa | 0 mm | - | 47 W/m² | - |
| 1777897265 | 10.56° C | 99% | 1018.5 hPa | 0 mm | - | 46 W/m² | - |
| 1777896961 | 10° C | 99% | 1018.2 hPa | 0 mm | - | 53 W/m² | - |
| 1777896658 | 10° C | 99% | 1018.4 hPa | 0 mm | - | 44 W/m² | - |
| 1777896355 | 9.44° C | 99% | 1018.4 hPa | 0 mm | - | 41 W/m² | - |
| 1777896053 | 9.44° C | 99% | 1018.5 hPa | 0 mm | - | 41 W/m² | - |
| 1777895751 | 9.44° C | 99% | 1018.5 hPa | 0 mm | - | 39 W/m² | - |
| 1777895448 | 8.89° C | 99% | 1018.5 hPa | 0 mm | - | 38 W/m² | - |
| 1777895146 | 8.89° C | 99% | 1018.5 hPa | 0 mm | - | 35 W/m² | - |
| 1777894843 | 8.89° C | 99% | 1018.3 hPa | 0 mm | - | 33 W/m² | - |
| 1777894539 | 8.89° C | 99% | 1018.4 hPa | 0 mm | - | 31 W/m² | - |
| 1777894237 | 8.33° C | 99% | 1018.4 hPa | 0 mm | - | 29 W/m² | - |
* Rain latest hour (hover to see other rain measurements)
** Current wind speed in m/s (hover to see current wind gust speed)